TimePDT,TemperatureF,Dew PointF,Humidity,Sea Level PressureIn,VisibilityMPH,Wind Direction,Wind SpeedMPH,Gust SpeedMPH,PrecipitationIn,Events,Conditions,WindDirDegrees,DateUTC
12:52 AM,57.0,39.0,51,29.94,-9999.0,ENE,6.9,-,N/A,,Unknown,60,2012-09-30 07:52:00
1:52 AM,57.0,37.9,49,29.94,-9999.0,NE,8.1,-,N/A,,Unknown,50,2012-09-30 08:52:00
2:52 AM,55.9,37.9,51,29.94,-9999.0,NE,6.9,-,N/A,,Unknown,40,2012-09-30 09:52:00
3:52 AM,53.1,37.0,55,29.94,-9999.0,ENE,8.1,-,N/A,,Unknown,60,2012-09-30 10:52:00
4:52 AM,54.0,37.0,53,29.94,-9999.0,NE,6.9,-,N/A,,Unknown,50,2012-09-30 11:52:00
5:52 AM,54.0,37.0,53,29.95,-9999.0,NE,6.9,-,N/A,,Unknown,50,2012-09-30 12:52:00
6:52 AM,55.0,37.9,53,29.96,-9999.0,NE,5.8,-,N/A,,Unknown,50,2012-09-30 13:52:00
7:52 AM,62.1,41.0,46,29.98,-9999.0,ENE,4.6,-,N/A,,Unknown,60,2012-09-30 14:52:00
8:52 AM,77.0,43.0,30,29.96,-9999.0,Calm,Calm,-,N/A,,Unknown,0,2012-09-30 15:52:00
9:52 AM,88.0,37.0,16,29.95,-9999.0,Calm,Calm,-,N/A,,Unknown,0,2012-09-30 16:52:00
10:52 AM,91.9,33.1,12,29.94,-9999.0,East,6.9,19.6,N/A,,Unknown,80,2012-09-30 17:52:00
11:52 AM,93.0,30.9,11,29.93,-9999.0,Variable,3.5,16.1,N/A,,Unknown,0,2012-09-30 18:52:00
12:52 PM,95.0,30.9,10,29.91,-9999.0,ENE,17.3,24.2,N/A,,Unknown,70,2012-09-30 19:52:00
1:52 PM,95.0,28.0,9,29.89,-9999.0,ENE,11.5,16.1,N/A,,Unknown,70,2012-09-30 20:52:00
2:52 PM,95.0,28.0,9,29.88,-9999.0,Variable,4.6,18.4,N/A,,Unknown,0,2012-09-30 21:52:00
3:52 PM,93.9,28.9,10,29.87,-9999.0,Variable,6.9,19.6,N/A,,Unknown,0,2012-09-30 22:52:00
4:52 PM,91.9,30.9,11,29.87,-9999.0,NNE,10.4,-,N/A,,Unknown,20,2012-09-30 23:52:00
5:52 PM,88.0,37.0,16,29.88,-9999.0,West,12.7,17.3,N/A,,Unknown,280,2012-10-01 00:52:00
6:52 PM,81.0,36.0,20,29.91,-9999.0,Calm,Calm,-,N/A,,Unknown,0,2012-10-01 01:52:00
7:52 PM,73.9,37.9,27,29.93,-9999.0,Calm,Calm,-,N/A,,Unknown,0,2012-10-01 02:52:00
8:52 PM,66.9,36.0,32,29.93,-9999.0,ENE,8.1,-,N/A,,Unknown,70,2012-10-01 03:52:00
9:52 PM,64.0,35.1,34,29.93,-9999.0,ENE,8.1,-,N/A,,Unknown,70,2012-10-01 04:52:00
10:52 PM,62.1,34.0,35,29.92,-9999.0,ENE,8.1,-,N/A,,Unknown,70,2012-10-01 05:52:00
11:52 PM,59.0,33.1,38,29.91,-9999.0,ENE,9.2,-,N/A,,Unknown,60,2012-10-01 06:52:00